Location: Newark
(45.2500°N, 7.5833°E)
Time: 03:27:20
(UTC+00:00)

Tiros 1 despin weight - Pass Details

Date: 28 January 2020
Orbit: 594 x 642 km, 48.2° (Epoch: 17 February)

Event Time Altitude Azimuth Distance (km) Brightness Sun altitude
Rises 12:08:35 0° 273° (W) 2,870 ? 26.2°
Reaches altitude 10° 12:10:54 10° 277° (W) 1,974 ? 26.2°
Maximum altitude 12:15:23 59° 357° (N) 719 ? 26.1°
Drops below altitude 10° 12:19:57 10° 78° (ENE) 2,005 ? 25.9°
Sets 12:22:19 0° 82° (E) 2,920 ? 25.9°
